Simultaneous Nadir Overpasses (SNOs) Predictions

Prediction of SNOs between AQUA and GOES-15 Satellite Orbit:

Table of predicted SNOs for the next 14.0 days since TLE Epoch: 11/11/2011
Index Date Time (AQUA) AQUA Lat,Lon GOES-15 Lat,Lon Distance(km) Time Diff (sec)
1 11/11/2011 20:43:26 0.48,-107.20 -0.06,-109.72 286.60 80
2 11/12/2011 09:04:42 0.55,-112.37 0.03,-109.90 280.18 80
3 11/14/2011 08:52:33 -0.38,-109.46 0.05,-111.50 231.46 80
4 11/14/2011 21:13:58 -0.56,-114.69 -0.03,-112.15 288.38 80
5 11/16/2011 21:01:48 0.37,-111.78 -0.04,-113.75 223.71 80
6 11/17/2011 09:23:03 0.68,-116.94 0.01,-113.93 342.50 80
7 11/19/2011 09:10:53 -0.30,-114.04 0.02,-115.53 169.48 80
8 11/19/2011 21:32:18 -0.67,-119.25 -0.00,-116.17 350.78 80
9 11/21/2011 21:20:06 0.26,-116.34 -0.02,-117.76 161.80 80
10 11/22/2011 09:41:21 0.77,-121.50 -0.01,-117.95 403.64 80
11 11/24/2011 09:29:09 -0.22,-118.59 0.01,-119.54 108.25 80
12 11/24/2011 21:50:33 -0.78,-123.80 0.01,-120.17 412.93 80




NCC Satellite Simultaneous Nadir Overpasses (SNOs) Prediction Service
